Location: McFarlands Corners
(41.4117°N, 81.3382°W)
Time: 05:40:31
(UTC+00:00)

A-11 Canister half - Pass Details

Date: 16 February 2026
Orbit: 1524 x 1683 km, 47.3° (Epoch: 14 March)

Event Time Altitude Azimuth Distance (km) Brightness Sun altitude
Rises 00:02:49 0° 260° (W) 4,697 13.6 -12.5°
Reaches altitude 10° 00:05:55 10° 263° (W) 3,704 12.5 -13.1°
Maximum altitude 00:15:12 68° 346° (NNW) 1,627 9.1 -14.8°
Enters shadow 00:22:29 18° 66° (ENE) 3,085 10.0 -16.2°
